This demonstration page uses our WeatherBlox Daily Observations layout. Learn more.

Left ArrowRight Arrow

39.51506, -84.39828

Hourly Observations for October 9, 2020

Temp ( °F °C ) Dew Point ( °F °C ) Humidity (%) Winds ( mph kmh ) Pressure ( in mb ) Visibility ( mi km ) Precip ( " mm )
12:15 am 00:15 Clear 48 9 46 7.5 90 90 Calm 30.18 1022 10 16.0934 0 0
12:35 am 00:35 Clear 48 8.7 45 7.3 91 91 Calm 30.18 1022 10 16.0934 0 0
12:55 am 00:55 Clear 47 8.2 45 7.3 94 94 Calm 30.18 1022 10 16.0934 0 0
1:15 am 01:15 Clear 46 8 45 7 93 93 Calm 30.18 1022 10 16.0934 0 0
1:35 am 01:35 Clear 47 8.3 46 7.5 95 95 Calm 30.17 1022 10 16.0934 0 0
1:55 am 01:55 Clear 47 8.4 45 7.4 94 94 Calm 30.18 1022 10 16.0934 0 0
2:15 am 02:15 Clear 47 8.5 45 7.3 92 92 Calm 30.17 1022 10 16.0934 0 0
2:35 am 02:35 Clear 46 7.7 45 7.1 96 96 Calm 30.17 1022 10 16.0934 0 0
2:55 am 02:55 Clear 46 7.9 45 7 94 94 Calm 30.17 1022 10 16.0934 0 0
3:15 am 03:15 Clear 46 7.8 45 7 95 95 Calm 30.16 1021 10 16.0934 0 0
3:35 am 03:35 Clear 47 8.1 45 7.4 95 95 Calm 30.16 1021 10 16.0934 0 0
3:55 am 03:55 Clear 44 6.8 43 6.3 97 97 Calm 30.17 1022 10 16.0934 0 0
4:15 am 04:15 Clear 44 6.9 44 6.5 97 97 Calm 30.17 1022 10 16.0934 0 0
4:35 am 04:35 Clear 45 7.1 44 6.8 98 98 Calm 30.16 1021 10 16.0934 0 0
4:55 am 04:55 Clear 45 7.2 44 6.9 98 98 Calm 30.17 1022 10 16.0934 0 0
5:15 am 05:15 Clear 45 7.2 44 6.9 98 98 Calm 30.17 1022 10 16.0934 0 0
5:35 am 05:35 Clear 45 7 44 6.7 98 98 Calm 30.18 1022 10 16.0934 0 0
5:55 am 05:55 Clear 45 7 44 6.7 98 98 Calm 30.18 1022 10 16.0934 0 0
6:15 am 06:15 Clear 44 6.7 44 6.5 99 99 Calm 30.18 1022 10 16.0934 0 0
6:35 am 06:35 Clear 44 6.7 44 6.4 98 98 Calm 30.18 1022 10 16.0934 0 0
6:55 am 06:55 Clear 45 7 44 6.9 99 99 Calm 30.18 1022 10 16.0934 0 0
7:15 am 07:15 Clear 43 5.9 42 5.7 99 99 Calm 30.18 1022 10 16.0934 0 0
7:35 am 07:35 Clear 44 6.6 44 6.5 99 99 Calm 30.19 1022 10 16.0934 0 0
7:55 am 07:55 Sunny 44 6.4 44 6.4 100 100 Calm 30.19 1022 10 16.0934 0 0
8:15 am 08:15 Sunny 43 6 41 5 93 93 Calm 30.19 1022 10 16.0934 0 0
8:35 am 08:35 Sunny 45 7.3 45 7.2 99 99 Calm 30.19 1022 10 16.0934 0 0
8:55 am 08:55 Sunny 47 8.4 46 8 97 97 Calm 30.18 1022 10 16.0934 0 0
9:15 am 09:15 Sunny 49 9.7 47 8.5 92 92 Calm 30.18 1022 10 16.0934 0 0
9:35 am 09:35 Sunny 52 11.1 49 9.5 90 90 Calm 30.18 1022 10 16.0934 0 0
9:55 am 09:55 Sunny 55 12.7 49 9.5 81 81 Calm 30.17 1022 10 16.0934 0 0
10:15 am 10:15 Sunny 58 14.5 49 9.7 73 73 Calm 30.16 1021 10 16.0934 0 0
10:35 am 10:35 Sunny 61 15.9 49 9.5 66 66 Calm 30.16 1021 10 16.0934 0 0
10:55 am 10:55 Sunny 63 17.4 49 9.7 61 61 Calm 30.15 1021 10 16.0934 0 0
11:15 am 11:15 Sunny 66 18.7 50 10 57 57 Calm 30.14 1021 10 16.0934 0 0
11:35 am 11:35 Sunny 68 19.8 51 10.4 55 55 Calm 30.14 1020 10 16.0934 0 0
11:55 am 11:55 Sunny 71 21.4 51 10.4 50 50 W 8 13 30.12 1020 10 16.0934 0 0
12:15 pm 12:15 Sunny 72 22.2 50 10.1 46 46 Calm 30.11 1020 10 16.0934 0 0
12:35 pm 12:35 Sunny 75 24 48 8.8 38 38 WSW 12 19 30.11 1019 10 16.0934 0 0
12:55 pm 12:55 Sunny 75 24 47 8.4 37 37 SW 9 15 30.09 1019 10 16.0934 0 0
1:15 pm 13:15 Sunny 77 25.1 46 7.8 33 33 SW 9 15 30.07 1018 10 16.0934 0 0
1:55 pm 13:55 Sunny 79 26 46 7.5 31 31 SW 10 17 30.06 1018 10 16.0934 0 0
2:15 pm 14:15 Sunny 79 26 45 7.4 31 31 SW 12 19 30.04 1017 10 16.0934 0 0
2:35 pm 14:35 Sunny 79 26 46 7.7 31 31 SSW 10 17 30.03 1017 10 16.0934 0 0
2:55 pm 14:55 Sunny 79 26.3 45 7.1 30 30 WSW 10 17 30.03 1017 10 16.0934 0 0
3:15 pm 15:15 Sunny 79 26 45 7.1 30 30 SW 8 13 30.01 1016 10 16.0934 0 0
3:35 pm 15:35 Sunny 79 26.2 46 7.5 31 31 WSW 9 15 30.01 1016 10 16.0934 0 0
3:55 pm 15:55 Sunny 79 26.2 46 7.9 31 31 SW 9 15 30 1016 10 16.0934 0 0
4:15 pm 16:15 Sunny 79 26.1 47 8.5 33 33 SSW 10 17 30 1016 10 16.0934 0 0
4:35 pm 16:35 Sunny 79 25.9 47 8.6 33 33 SSW 12 19 29.99 1016 10 16.0934 0 0
4:55 pm 16:55 Sunny 78 25.5 48 9.1 35 35 SSW 10 17 29.99 1016 10 16.0934 0 0
5:15 pm 17:15 Sunny 78 25.4 48 9.1 36 36 SSW 10 17 29.99 1016 10 16.0934 0 0
5:35 pm 17:35 Sunny 77 25.1 49 9.5 37 37 SW 7 11 29.99 1016 10 16.0934 0 0
5:55 pm 17:55 Sunny 77 24.8 49 9.7 39 39 SW 9 15 29.99 1016 10 16.0934 0 0
6:15 pm 18:15 Sunny 76 24.5 49 9.7 39 39 SW 8 13 29.98 1015 10 16.0934 0 0
6:35 pm 18:35 Sunny 76 24.4 49 9.6 39 39 SW 6 9 29.98 1015 10 16.0934 0 0
6:55 pm 18:55 Sunny 75 23.7 50 9.9 42 42 SSW 3 6 29.99 1015 10 16.0934 0 0
7:15 pm 19:15 Clear 74 23.5 50 10.1 43 43 SSW 3 6 29.99 1015 10 16.0934 0 0
7:35 pm 19:35 Clear 73 23 51 10.5 45 45 SW 6 9 29.99 1015 10 16.0934 0 0
7:55 pm 19:55 Clear 72 22.4 52 11 49 49 SW 5 7 29.99 1016 10 16.0934 0 0
8:15 pm 20:15 Clear 69 20.3 53 11.5 57 57 W 3 6 29.99 1016 10 16.0934 0 0
8:35 pm 20:35 Clear 68 20.1 53 11.8 59 59 W 3 6 29.99 1016 10 16.0934 0 0
8:50 pm 20:50 Clear 67 19.7 54 12 61 61 WSW 3 6 30 1016 10 16.0934 0 0
9:15 pm 21:15 Clear 66 18.9 55 12.6 67 67 W 5 7 30 1016 10 16.0934 0 0
9:35 pm 21:35 Clear 64 17.7 55 12.6 72 72 W 3 6 30 1016 10 16.0934 0 0
9:55 pm 21:55 Clear 65 18.2 56 13.1 72 72 W 5 7 30 1016 10 16.0934 0 0
10:15 pm 22:15 Clear 63 17.3 56 13.2 77 77 WSW 6 9 30 1016 10 16.0934 0 0
10:35 pm 22:35 Clear 66 18.8 59 14.9 78 78 WSW 5 7 29.99 1015 10 16.0934 0 0
10:55 pm 22:55 Clear 69 20.6 62 16.8 79 79 WSW 10 17 29.99 1016 10 16.0934 0 0
11:15 pm 23:15 Clear 69 20.6 62 16.8 79 79 W 10 17 29.99 1016 10 16.0934 0 0
11:35 pm 23:35 Clear 69 20.8 62 16.8 78 78 W 12 19 29.99 1016 10 16.0934 0 0
11:55 pm 23:55 Clear 69 20.5 62 16.9 80 80 W 10 17 29.99 1016 10 16.0934 0 0

Powered by AerisWeather